Flag for France Weather past 2 weeks in Rennes, France

Now
54 °F

Partly sunny.


Feels Like: 50 °F
Forecast: 46 / 54 °F
Wind: 13 mph from North

Location: Rennes Airport

Current Time: Mar 30, 2015 at 12:47:57 PM

Latest Report: Mar 30, 2015 at 12:00 PM


Visibility: N/A

Pressure: 30.07 "Hg

Humidity: 82%

Dew point: 48 °F

Location of RennesLocation

Historic Weather in Rennes — Graph

°F

Rennes temperature yesterday

Maximum temperature yesterday: 55 °F (at 10:30 AM)
Minimum temperature yesterday: 52 °F (at 12:00 AM)
Average temperature yesterday: 54 °F

Past Weeks' High & Low Weather Summary

 TemperatureHumidityPressure
High63 °F (Mar 18, 2:30 PM)100% (Mar 18, 1:30 AM)30.42 "Hg (Mar 18, 1:30 AM)
Low30 °F (Mar 23, 6:00 AM)39% (Mar 18, 2:30 PM)29.74 "Hg (Mar 26, 8:00 AM)
Average47 °F79%30.10 "Hg
* Reported Mar 15 10:00 AM — Mar 30 11:30 AM, Rennes, Weather by CustomWeather, © 2015

Note: Actual official high and low records may vary slightly from our data, if they occured in-between our weather recording intervals... More about our weather records

Advertising

Rennes weather history for previous 24 hours

 ConditionsComfort  
Time TempWeatherWind HumidityBarometerVisibility
11:30 AM
Mon, Mar 30
54 °FPartly sunny.14 mph88%30.07 "HgN/A
11:00 AM54 °FMostly cloudy.14 mph82%30.04 "HgN/A
10:00 AM54 °FMostly cloudy.10 mph88%30.01 "HgN/A
9:30 AM52 °FMostly cloudy.8 mph94%29.98 "HgN/A
9:00 AM52 °FBroken clouds.9 mph88%29.98 "HgN/A
8:30 AM50 °FPassing clouds.13 mph94%29.95 "HgN/A
8:00 AM50 °FLight rain. Fog.14 mph100%29.95 "Hg3 mi
7:30 AM54 °FDrizzle. Mostly cloudy.6 mph94%29.92 "Hg5 mi
7:00 AM54 °FPartly cloudy.9 mph94%29.92 "HgN/A
6:30 AM54 °FDrizzle. Fog.7 mph94%29.89 "Hg2 mi
6:00 AM54 °FDrizzle. Mostly cloudy.12 mph94%29.89 "Hg4 mi
5:30 AM54 °FLow clouds.13 mph94%29.86 "HgN/A
4:30 AM54 °FOvercast.14 mph94%29.86 "HgN/A
4:00 AM54 °FOvercast.15 mph88%29.86 "HgN/A
3:30 AM54 °FOvercast.16 mph88%29.86 "HgN/A
3:00 AM54 °FOvercast.15 mph88%29.83 "HgN/A
2:30 AM54 °FOvercast.13 mph88%29.83 "HgN/A
2:00 AM54 °FOvercast.14 mph88%29.83 "HgN/A
1:30 AM54 °FLight rain. Overcast.13 mph88%29.86 "HgN/A
1:00 AM54 °FLight rain. Overcast.14 mph88%29.86 "HgN/A
12:30 AM54 °FDrizzle. Overcast.16 mph88%29.86 "HgN/A
12:00 AM54 °FLight rain. Overcast.15 mph88%29.83 "HgN/A
11:30 PM
Sun, Mar 29
54 °FLight rain. Overcast.15 mph94%29.86 "HgN/A
11:00 PM54 °FLight rain. Overcast.16 mph88%29.86 "HgN/A
10:30 PM54 °FOvercast.15 mph88%29.86 "HgN/A
10:00 PM54 °FOvercast.16 mph88%29.86 "HgN/A
9:30 PM54 °FLight rain. Overcast.14 mph88%29.86 "HgN/A
9:00 PM54 °FLight rain. Overcast.15 mph88%29.86 "HgN/A
8:30 PM54 °FLight rain. Overcast.15 mph88%29.86 "HgN/A
8:00 PM55 °FDrizzle. Overcast.18 mph82%29.86 "HgN/A
7:30 PM54 °FLight rain. Overcast.16 mph94%29.86 "HgN/A
7:00 PM54 °FLight rain. Overcast.14 mph94%29.86 "HgN/A
6:30 PM54 °FDrizzle. Mostly cloudy.20 mph94%29.86 "Hg5 mi
6:00 PM55 °FMostly cloudy.18 mph88%29.86 "HgN/A
5:30 PM55 °FLight rain. Mostly cloudy.16 mph88%29.86 "HgN/A
5:00 PM55 °FLight rain. Overcast.17 mph88%29.89 "HgN/A
4:30 PM55 °FLight rain. Overcast.21 mph82%29.89 "HgN/A
4:00 PM55 °FDrizzle. Overcast.21 mph82%29.89 "HgN/A
3:30 PM55 °FLight rain. Overcast.20 mph82%29.92 "HgN/A
3:00 PM54 °FLight rain. Overcast.22 mph88%29.92 "HgN/A
2:30 PM55 °FMostly cloudy.18 mph82%29.92 "HgN/A
2:00 PM55 °FOvercast.20 mph82%29.89 "HgN/A
1:30 PM55 °FOvercast.21 mph82%29.92 "HgN/A
1:00 PM55 °FMostly cloudy.21 mph82%29.95 "HgN/A
12:30 PM55 °FOvercast.20 mph82%29.95 "HgN/A
12:00 PM55 °FOvercast.20 mph82%29.95 "HgN/A
Weather by CustomWeather, © 2015

See weather overviewHow to use our weather pages